ORBCOMM FM22 [-]

Last updated on Thu Dec 28 2023 00:02:55 GMT+0000 (Coordinated Universal Time)

1 25476U 98053B 23361.21113921 .00002131 00000+0 78715-3 0 9991 2 25476 45.0080 289.5474 0003173 18.7130 341.3833 14.35211985319902
UTC large
Height (km)
Speed (km/s)
/
Latitude / Longitude
Inclination (degrees)
Orbital Period (minutes)
Azimuth
Elevation
Range (km)
Doppler Factor

Next 0 passes for location: London (51.5072 / 0.1276)

Sorry there are no passes over London.